• In Hungary
  • List of Countries
  • For 7 days
  • Water Temperature
  • Satellite Maps
  • Weather Map
  • News
  • Weather Widgets
  • user-avatar
    Login

    Hourly Weather Palencia

    Today, 26 September, Wednesday

    Time Temperature Precipitation Wind Pressure Humidity
    00:00 +13°C° 0 mm 3 mps 698 mmHg 48%
    01:00 +13°C° 0 mm 3 mps 698 mmHg 49%
    02:00 +13°C° 0 mm 3 mps 698 mmHg 50%
    03:00 +13°C° 0 mm 3 mps 698 mmHg 52%
    04:00 +13°C° 0 mm 3 mps 698 mmHg 57%
    05:00 +13°C° 0 mm 3 mps 698 mmHg 63%
    06:00 +13°C° 0 mm 3 mps 698 mmHg 68%
    07:00 +16°C° 0 mm 3 mps 699 mmHg 66%
    08:00 +18°C° 0 mm 3 mps 699 mmHg 63%
    09:00 +21°C° 0 mm 4 mps 700 mmHg 61%
    10:00 +24°C° 0 mm 3 mps 700 mmHg 53%
    11:00 +26°C° 0 mm 3 mps 700 mmHg 45%
    12:00 +28°C° 0 mm 3 mps 700 mmHg 38%
    13:00 +29°C° 0 mm 3 mps 700 mmHg 34%
    14:00 +29°C° 0 mm 3 mps 700 mmHg 31%
    15:00 +30°C° 0 mm 3 mps 700 mmHg 27%
    16:00 +29°C° 0.1 mm 3 mps 700 mmHg 30%
    17:00 +28°C° 0.1 mm 2 mps 700 mmHg 32%
    18:00 +26°C° 0.1 mm 2 mps 700 mmHg 35%
    19:00 +25°C° 0 mm 3 mps 700 mmHg 39%
    20:00 +24°C° 0 mm 3 mps 701 mmHg 44%
    21:00 +22°C° 0 mm 3 mps 701 mmHg 48%
    22:00 +21°C° 0 mm 3 mps 701 mmHg 53%
    23:00 +21°C° 0 mm 3 mps 701 mmHg 58%

    Tomorrow, 27 September, Thursday

    Time Temperature Precipitation Wind Pressure Humidity
    00:00 +20°C° 0 mm 3 mps 701 mmHg 63%
    01:00 +19°C° 0 mm 3 mps 701 mmHg 67%
    02:00 +19°C° 0 mm 3 mps 701 mmHg 71%
    03:00 +18°C° 0 mm 3 mps 701 mmHg 74%
    04:00 +17°C° 0 mm 2 mps 701 mmHg 76%
    05:00 +17°C° 0 mm 2 mps 701 mmHg 78%
    06:00 +17°C° 0 mm 2 mps 701 mmHg 80%
    07:00 +18°C° 0 mm 2 mps 701 mmHg 73%
    08:00 +20°C° 0 mm 2 mps 702 mmHg 65%
    09:00 +21°C° 0 mm 2 mps 702 mmHg 58%
    10:00 +24°C° 0 mm 2 mps 702 mmHg 51%
    11:00 +26°C° 0 mm 2 mps 702 mmHg 45%
    12:00 +28°C° 0 mm 1 mps 702 mmHg 39%
    13:00 +28°C° 0 mm 1 mps 702 mmHg 37%
    14:00 +29°C° 0 mm 1 mps 701 mmHg 34%
    15:00 +29°C° 0 mm 1 mps 701 mmHg 32%
    16:00 +28°C° 0 mm 1 mps 700 mmHg 34%
    17:00 +28°C° 0 mm 1 mps 700 mmHg 36%
    18:00 +27°C° 0 mm 1 mps 700 mmHg 38%
    19:00 +26°C° 0 mm 1 mps 700 mmHg 40%
    20:00 +25°C° 0 mm 2 mps 700 mmHg 43%
    21:00 +24°C° 0 mm 2 mps 700 mmHg 46%
    22:00 +23°C° 0 mm 2 mps 700 mmHg 49%
    23:00 +21°C° 0 mm 2 mps 699 mmHg 52%

    Day after tomorrow, 28 September, Friday

    Time Temperature Precipitation Wind Pressure Humidity
    00:00 +21°C° 0 mm 2 mps 699 mmHg 56%
    01:00 +20°C° 0 mm 2 mps 699 mmHg 58%
    02:00 +20°C° 0 mm 2 mps 698 mmHg 59%
    03:00 +19°C° 0 mm 2 mps 698 mmHg 61%
    04:00 +19°C° 0 mm 2 mps 698 mmHg 63%
    05:00 +18°C° 0 mm 2 mps 697 mmHg 64%
    06:00 +19°C° 0 mm 1 mps 697 mmHg 65%
    07:00 +20°C° 0 mm 1 mps 697 mmHg 59%
    08:00 +22°C° 0 mm 1 mps 698 mmHg 54%
    09:00 +24°C° 0 mm 1 mps 698 mmHg 48%
    10:00 +25°C° 0 mm 1 mps 698 mmHg 42%
    11:00 +27°C° 0 mm 1 mps 698 mmHg 37%
    12:00 +28°C° 0 mm 1 mps 698 mmHg 31%
    13:00 +29°C° 0 mm 1 mps 697 mmHg 29%
    14:00 +29°C° 0 mm 2 mps 697 mmHg 27%
    15:00 +30°C° 0 mm 2 mps 696 mmHg 25%
    16:00 +29°C° 0 mm 2 mps 696 mmHg 27%
    17:00 +28°C° 0 mm 2 mps 695 mmHg 30%
    18:00 +26°C° 0 mm 2 mps 695 mmHg 32%
    19:00 +25°C° 0 mm 3 mps 695 mmHg 38%
    20:00 +23°C° 0 mm 4 mps 695 mmHg 43%
    21:00 +22°C° 0 mm 4 mps 696 mmHg 49%
    22:00 +21°C° 0 mm 4 mps 695 mmHg 51%
    23:00 +20°C° 0 mm 4 mps 695 mmHg 54%

    29 September, Saturday

    Time Temperature Precipitation Wind Pressure Humidity
    00:00 +19°C° 0 mm 3 mps 695 mmHg 56%
    01:00 +19°C° 0 mm 3 mps 695 mmHg 57%
    02:00 +18°C° 0 mm 3 mps 694 mmHg 58%
    03:00 +18°C° 0 mm 3 mps 694 mmHg 59%
    04:00 +18°C° 0 mm 3 mps 694 mmHg 59%
    05:00 +17°C° 0 mm 3 mps 694 mmHg 60%
    06:00 +17°C° 0 mm 3 mps 694 mmHg 61%
    07:00 +19°C° 0 mm 3 mps 694 mmHg 55%
    08:00 +20°C° 0 mm 3 mps 695 mmHg 50%
    09:00 +22°C° 0 mm 3 mps 695 mmHg 44%
    10:00 +25°C° 0 mm 3 mps 695 mmHg 39%
    11:00 +27°C° 0 mm 2 mps 695 mmHg 34%
    12:00 +28°C° 0 mm 2 mps 695 mmHg 29%
    13:00 +29°C° 0 mm 2 mps 695 mmHg 27%
    14:00 +29°C° 0 mm 1 mps 695 mmHg 26%
    15:00 +30°C° 0 mm 1 mps 694 mmHg 24%
    16:00 +29°C° 0 mm 1 mps 694 mmHg 27%
    17:00 +27°C° 0 mm 2 mps 694 mmHg 30%
    18:00 +26°C° 0 mm 2 mps 694 mmHg 32%
    19:00 +25°C° 0 mm 3 mps 694 mmHg 38%
    20:00 +24°C° 0 mm 3 mps 694 mmHg 44%
    21:00 +22°C° 0 mm 4 mps 694 mmHg 50%
    22:00 +21°C° 0 mm 3 mps 694 mmHg 52%
    23:00 +21°C° 0 mm 3 mps 694 mmHg 53%

    30 September, Sunday

    Time Temperature Precipitation Wind Pressure Humidity
    00:00 +20°C° 0 mm 3 mps 694 mmHg 55%
    01:00 +20°C° 0 mm 3 mps 693 mmHg 56%
    02:00 +19°C° 0 mm 3 mps 693 mmHg 56%
    03:00 +19°C° 0 mm 3 mps 693 mmHg 57%
    04:00 +18°C° 0 mm 2 mps 693 mmHg 57%
    05:00 +18°C° 0 mm 2 mps 693 mmHg 57%
    06:00 +18°C° 0 mm 2 mps 693 mmHg 57%
    07:00 +19°C° 0 mm 2 mps 693 mmHg 51%
    08:00 +21°C° 0 mm 2 mps 694 mmHg 45%
    09:00 +24°C° 0 mm 1 mps 694 mmHg 39%
    10:00 +25°C° 0 mm 2 mps 694 mmHg 35%
    11:00 +27°C° 0 mm 2 mps 694 mmHg 31%
    12:00 +28°C° 0 mm 2 mps 694 mmHg 27%
    13:00 +29°C° 0 mm 2 mps 694 mmHg 26%
    14:00 +29°C° 0 mm 2 mps 694 mmHg 24%
    15:00 +30°C° 0 mm 2 mps 694 mmHg 23%
    16:00 +29°C° 0 mm 2 mps 693 mmHg 26%
    17:00 +27°C° 0 mm 2 mps 693 mmHg 28%
    18:00 +26°C° 0 mm 2 mps 693 mmHg 31%
    19:00 +25°C° 0 mm 2 mps 694 mmHg 37%
    20:00 +24°C° 0 mm 3 mps 694 mmHg 42%
    21:00 +22°C° 0 mm 4 mps 694 mmHg 48%
    22:00 +21°C° 0.1 mm 4 mps 694 mmHg 53%
    23:00 +20°C° 0.1 mm 4 mps 694 mmHg 57%

    1 October, Monday

    Time Temperature Precipitation Wind Pressure Humidity
    00:00 +19°C° 0.1 mm 4 mps 693 mmHg 62%
    01:00 +18°C° 0 mm 4 mps 693 mmHg 64%
    02:00 +17°C° 0 mm 3 mps 693 mmHg 67%
    03:00 +17°C° 0 mm 3 mps 693 mmHg 69%
    04:00 +17°C° 0 mm 3 mps 693 mmHg 71%
    05:00 +15°C° 0 mm 4 mps 693 mmHg 73%
    06:00 +15°C° 0 mm 4 mps 693 mmHg 75%
    07:00 +16°C° 0.1 mm 5 mps 694 mmHg 69%
    08:00 +17°C° 0.1 mm 5 mps 694 mmHg 62%
    09:00 +19°C° 0.1 mm 6 mps 695 mmHg 55%
    10:00 +20°C° 0 mm 6 mps 695 mmHg 48%
    11:00 +21°C° 0 mm 7 mps 695 mmHg 41%
    12:00 +23°C° 0 mm 7 mps 696 mmHg 34%
    13:00 +23°C° 0 mm 7 mps 696 mmHg 33%
    14:00 +23°C° 0 mm 7 mps 696 mmHg 32%
    15:00 +23°C° 0 mm 7 mps 695 mmHg 31%
    16:00 +21°C° 0 mm 7 mps 696 mmHg 33%
    17:00 +18°C° 0 mm 7 mps 696 mmHg 36%
    18:00 +17°C° 0 mm 7 mps 696 mmHg 38%
    19:00 +15°C° 0 mm 7 mps 696 mmHg 44%
    20:00 +12°C° 0 mm 7 mps 697 mmHg 51%
    21:00 +11°C° 0 mm 7 mps 697 mmHg 57%
    22:00 +10°C° 0 mm 6 mps 697 mmHg 61%
    23:00 +9°C° 0 mm 6 mps 697 mmHg 64%
    Show more